Date String (YYYY-MM-DD hh:mm:ss) UTC,Instrument flags,absolute air pressure of the measurement (hPa),sample flow rate (lpm),inlet stack bypass flow (lpm),air temperature of the measurement (°C),ambient temperature measured by the external sensor (°C),aerosol sample conditioner tube jacket temperature (°C),OPC LED temperature (°C),internal box temperature (°C),relative humidity of the measurement (%),span deviation,mass concentration of particles derived from Lorenz-Mie calculation of OPC scattering (μg/m³),mass concentration of particles derived from Lorenz-Mie calculation of OPC scattering (μg/m³),mass concentration of particles derived from Lorenz-Mie calculation of OPC scattering (μg/m³)
DateTimeUTC,F1_M11,P_M11,Q1_M11,Q2_M11,T1_M11,T2_M11,T3_M11,T4_M11,T5_M11,U1_M11,ZSPAN_M11,X0_M11,X2_M11,X1_M11
2023-07-17 03:00:00,SystemResetWarning,0833.2,5.01,000.00,028.7,024.9,000.0,037.0,030.0,26.9,0000.1,0017.62,0009.02,0008.31
2023-07-17 03:01:00,SystemResetWarning,0833.2,4.99,000.00,028.7,025.5,000.0,037.1,030.1,27.0,-000.1,0017.37,0009.04,0008.30
2023-07-17 03:02:00,SystemResetWarning,0833.2,4.99,000.00,028.7,026.0,000.0,037.1,030.2,26.9,-000.1,0017.52,0009.06,0008.29
2023-07-17 03:03:00,SystemResetWarning,0833.2,5.00,000.00,028.7,026.4,000.0,037.1,030.3,26.7,-000.5,0017.63,0009.06,0008.29
2023-07-17 03:04:00,SystemResetWarning,0833.2,5.01,000.00,028.7,026.8,000.0,037.1,030.4,26.6,-000.4,0017.64,0009.10,0008.30
2023-07-17 03:05:00,SystemResetWarning,0833.2,5.01,000.00,028.8,027.1,000.0,037.2,030.5,26.7,-000.2,0017.45,0009.15,0008.31
2023-07-17 03:06:00,SystemResetWarning,0833.3,4.99,000.00,028.8,027.4,000.0,037.2,030.6,26.6,-000.2,0016.85,0009.20,0008.34
2023-07-17 03:07:00,SystemResetWarning,0833.3,4.99,000.00,028.9,027.7,000.0,037.2,030.7,26.6,-000.1,0016.84,0009.22,0008.34
2023-07-17 03:08:00,SystemResetWarning,0833.3,4.99,000.00,029.0,027.9,000.0,037.2,030.7,26.5,-000.2,0016.62,0009.23,0008.35
2023-07-17 03:09:00,SystemResetWarning,0833.2,5.00,000.00,029.0,027.2,000.0,037.2,030.7,26.4,-000.1,0016.83,0009.29,0008.36
2023-07-17 03:10:00,SystemResetWarning,0833.2,5.00,000.00,028.9,025.7,000.0,037.1,030.5,26.6,-000.3,0016.02,0009.29,0008.37
2023-07-17 03:11:00,SystemResetWarning,0833.2,5.01,000.00,028.9,025.4,000.0,037.0,030.3,26.8,-000.1,0015.37,0009.28,0008.39
2023-07-17 03:12:00,SystemResetWarning,0833.2,5.01,000.00,028.8,025.7,000.0,037.1,030.2,26.8,0000.3,0015.59,0009.26,0008.41
2023-07-17 03:13:00,SystemResetWarning,0833.2,5.00,000.00,028.8,026.1,000.0,037.1,030.3,26.8,0000.3,0015.94,0009.26,0008.43
2023-07-17 03:14:00,SystemResetWarning,0833.2,4.99,000.00,028.8,026.5,000.0,037.2,030.4,27.5,0000.8,0016.18,0009.23,0008.44
2023-07-17 03:15:00,SystemResetWarning,0833.2,5.00,000.00,028.9,026.9,000.0,037.2,030.5,27.5,0000.7,0016.79,0009.21,0008.45
2023-07-17 03:16:00,SystemResetWarning,0833.3,5.00,000.00,028.9,027.2,000.0,037.2,030.6,26.6,0000.3,0018.43,0009.22,0008.46
2023-07-17 03:17:00,SystemResetWarning,0833.2,5.00,000.00,028.9,027.5,000.0,037.3,030.7,26.4,0000.2,0019.26,0009.22,0008.48
2023-07-17 03:18:00,SystemResetWarning,0833.2,4.99,000.00,029.0,027.7,000.0,037.3,030.7,26.3,-000.0,0019.76,0009.28,0008.50
2023-07-17 03:19:00,SystemResetWarning,0833.3,4.99,000.00,029.0,027.8,000.0,037.3,030.8,26.2,-000.1,0020.62,0009.30,0008.49
2023-07-17 03:20:00,SystemResetWarning,0833.3,5.00,000.00,029.1,026.6,000.0,037.2,030.6,26.2,0000.1,0020.05,0009.27,0008.52
2023-07-17 03:21:00,SystemResetWarning,0833.2,5.00,000.00,029.0,025.0,000.0,037.1,030.3,26.2,0000.3,0020.10,0009.30,0008.53
2023-07-17 03:22:00,SystemResetWarning,0833.2,5.00,000.00,028.9,024.5,000.0,037.0,030.2,26.4,0000.5,0020.45,0009.38,0008.55
2023-07-17 03:23:00,SystemResetWarning,0833.2,5.02,000.00,028.8,024.8,000.0,037.1,030.0,26.5,0000.3,0020.58,0009.43,0008.56
2023-07-17 03:24:00,SystemResetWarning,0833.2,5.00,000.00,028.7,025.3,000.0,037.1,030.1,26.4,-000.0,0019.93,0009.47,0008.57
2023-07-17 03:25:00,SystemResetWarning,0833.2,5.00,000.00,028.7,025.8,000.0,037.1,030.2,26.4,-000.2,0019.89,0009.52,0008.58
2023-07-17 03:26:00,SystemResetWarning,0833.2,4.98,000.00,028.7,026.3,000.0,037.2,030.3,26.4,-000.3,0019.77,0009.60,0008.58
2023-07-17 03:27:00,SystemResetWarning,0833.2,5.01,000.00,028.8,026.7,000.0,037.2,030.4,26.6,0000.0,0019.15,0009.65,0008.58
2023-07-17 03:28:00,SystemResetWarning,0833.2,5.01,000.00,028.8,027.0,000.0,037.2,030.5,26.4,-000.0,0018.46,0009.65,0008.55
2023-07-17 03:29:00,SystemResetWarning,0833.2,4.98,000.00,028.9,027.3,000.0,037.2,030.5,26.3,-000.0,0018.50,0009.65,0008.52
2023-07-17 03:30:00,SystemResetWarning,0833.3,5.00,000.00,028.9,027.6,000.0,037.2,030.6,26.2,-000.2,0018.13,0009.61,0008.51
2023-07-17 03:31:00,SystemResetWarning,0833.2,5.01,000.00,028.9,027.8,000.0,037.3,030.7,26.0,0000.0,0018.41,0009.59,0008.48
2023-07-17 03:32:00,SystemResetWarning,0833.2,5.01,000.00,029.0,027.9,000.0,037.3,030.8,25.2,-000.0,0018.72,0009.59,0008.46
2023-07-17 03:33:00,SystemResetWarning,0833.2,4.99,000.00,029.0,027.3,000.0,037.3,030.7,25.6,-000.2,0018.67,0009.58,0008.42
2023-07-17 03:34:00,SystemResetWarning,0833.2,4.99,000.00,029.0,025.7,000.0,037.1,030.5,25.0,-000.3,0018.18,0009.56,0008.40
2023-07-17 03:35:00,SystemResetWarning,0833.2,5.02,000.00,028.9,025.4,000.0,037.1,030.3,24.4,-000.0,0018.05,0009.53,0008.39
2023-07-17 03:36:00,SystemResetWarning,0833.2,4.99,000.00,028.9,025.7,000.0,037.1,030.2,24.8,0000.1,0018.13,0009.48,0008.36
2023-07-17 03:37:00,SystemResetWarning,0833.2,5.00,000.00,028.9,026.1,000.0,037.2,030.3,24.7,0000.3,0017.52,0009.40,0008.35
2023-07-17 03:38:00,SystemResetWarning,0833.2,5.00,000.00,028.9,026.5,000.0,037.2,030.4,24.5,0000.2,0016.70,0009.34,0008.34
2023-07-17 03:39:00,SystemResetWarning,0833.2,5.00,000.00,028.9,026.9,000.0,037.3,030.5,24.3,0000.4,0016.72,0009.42,0008.36
2023-07-17 03:40:00,SystemResetWarning,0833.2,5.01,000.00,028.9,027.2,000.0,037.3,030.6,24.0,0000.7,0016.36,0009.41,0008.38
2023-07-17 03:41:00,SystemResetWarning,0833.2,5.00,000.00,029.0,027.4,000.0,037.3,030.7,24.3,0000.7,0015.88,0009.43,0008.39
2023-07-17 03:42:00,SystemResetWarning,0833.2,4.99,000.00,029.0,027.7,000.0,037.3,030.7,24.1,0000.6,0015.37,0009.37,0008.32
2023-07-17 03:43:00,SystemResetWarning,0833.2,5.00,000.00,029.1,027.9,000.0,037.4,030.8,24.2,0000.5,0015.09,0009.32,0008.28
2023-07-17 03:44:00,SystemResetWarning,0833.2,4.99,000.00,029.1,027.5,000.0,037.4,030.8,24.4,0000.3,0015.01,0009.26,0008.26
2023-07-17 03:45:00,SystemResetWarning,0833.2,4.99,000.00,029.1,025.9,000.0,037.2,030.6,24.2,0000.2,0014.82,0009.11,0008.13
2023-07-17 03:46:00,SystemResetWarning,0833.2,5.02,000.00,029.0,025.4,000.0,037.2,030.5,24.0,0000.2,0014.46,0008.95,0007.99
2023-07-17 03:47:00,SystemResetWarning,0833.2,5.01,000.00,028.9,025.7,000.0,037.2,030.3,24.5,0000.4,0013.83,0008.86,0007.91
2023-07-17 03:48:00,SystemResetWarning,0833.3,4.99,000.00,028.9,026.0,000.0,037.2,030.4,22.6,0000.4,0013.84,0008.83,0007.83
2023-07-17 03:49:00,SystemResetWarning,0833.2,5.00,000.00,028.9,026.4,000.0,037.3,030.4,23.5,0000.3,0014.26,0008.75,0007.75
2023-07-17 03:50:00,SystemResetWarning,0833.2,5.00,000.00,028.9,026.8,000.0,037.3,030.5,21.8,-000.1,0014.38,0008.55,0007.63
2023-07-17 03:51:00,SystemResetWarning,0833.3,5.01,000.00,029.0,027.1,000.0,037.3,030.6,20.2,-000.3,0014.28,0008.42,0007.53
2023-07-17 03:52:00,SystemResetWarning,0833.3,4.99,000.00,029.0,027.4,000.0,037.4,030.7,19.5,-000.1,0014.26,0008.32,0007.46
2023-07-17 03:53:00,SystemResetWarning,0833.3,4.99,000.00,029.1,027.7,000.0,037.4,030.8,18.8,-000.1,0015.03,0008.32,0007.46
2023-07-17 03:54:00,SystemResetWarning,0833.3,5.00,000.00,029.1,027.9,000.0,037.4,030.8,19.5,-000.1,0015.13,0008.33,0007.44
2023-07-17 03:55:00,SystemResetWarning,0833.3,5.00,000.00,029.1,027.0,000.0,037.4,030.7,20.7,0000.3,0015.78,0008.32,0007.43
2023-07-17 03:56:00,SystemResetWarning,0833.2,5.00,000.00,029.0,025.6,000.0,037.3,030.5,18.7,0000.3,0016.09,0008.41,0007.48
2023-07-17 03:57:00,SystemResetWarning,0833.2,5.00,000.00,029.0,025.4,000.0,037.2,030.3,19.5,0000.3,0016.57,0008.51,0007.54
2023-07-17 03:58:00,SystemResetWarning,0833.2,5.01,000.00,028.9,025.7,000.0,037.2,030.2,19.3,0000.2,0016.53,0008.54,0007.59
2023-07-17 03:59:00,SystemResetWarning,0833.2,5.01,000.00,028.9,026.1,000.0,037.3,030.3,19.2,0000.2,0016.37,0008.41,0007.50
